Find OneWeb SL0696

NORAD ID: 56723 Int'l Des: 2023-068 Owner: ONEWEBN Country: UK Constellation: oneweb operational
LEOCIRCULARPOLARONEWEB_TYPE

現在のビュー

3D地球を読み込み中...

About OneWeb SL0696

OneWeb SL0696 (NORAD 56723) is a oneweb constellation satellite launched May 20, 2023 by ONEWEBN of UK. It operates in LEO, CIRCULAR, POLAR, ONEWEB_TYPE orbit with a mass of 148.00 kg.

OneWeb SL0696について

説明を読み込み中...

次回通過

Passes for default location (London). Set your location on the main map for personalized predictions.

高度履歴

Loading altitude history...

軌道要素

1 56723U 23068P 26195.62935934 .00000090 00000-0 20539-3 0 9997
2 56723 87.8987 253.7539 0002056 113.5576 246.5771 13.15550048152975
Epoch: Jul 14, 2026 • Age: 8 hours

現在のステータス

高度 1211.8 km
遠地点 / 近地点 N/A
速度 7.25 km/s
衛星直下点 63.73°N, 15.81°W
打ち上げ日 May 20, 2023
運用期間 3.1 years
タイプ internet

技術仕様

分類 Payload
質量 148.00 kg
乾燥質量 140.00 kg
総質量 148.00 kg
長さ 1.30 m
直径 1.00 m
スパン 5.00 m
形状 Trapezoid+2 pan
製造者 ONEWUS
バスタイプ ARROW
フェーズステータス In Orbit
所有者/国 ONEWEBN/UK

Most Searched